MMC

 

 

Mario Martinez Classic - ARBUCKLE 60 MILLES

Station: ARBUCKLE CITY 60 M - T Race

Distance: 88.514 Kilometers    

Release: 22-Sep-2022 07:30

Weather Release:    Arrival:

Wind at Release:     Wind at Arrival:

Temp at Release: °    Temp at Arrival: °

Lofts: 158

Birds: 670

Clocked: 668

Good Luck to Everyone!
Drops Pos Breeder Pigeon Name Color Sex Ent Arrival Speed To Win Elg Pd
1 Apr Loft - CA 19730-AU22-JEDD DC H 1 08:31:16.90 1599.058 00:00:00 Yes
2 Larios Loft - CA 3239-AU22-FORT BCWF H 1 08:31:20.30 1597.581 00:00:03 Yes
3 Bizblood - CA 0024-AU22-BIZB DC H 1 08:31:23.80 1596.063 00:00:07 Yes
4 Leo Gomez Loft - 0733-AU22-SFPC BB H 1 08:31:40.50 1588.861 00:00:24 Yes
5 H Padilla Y Leo Gomez - CA 0728-AU22-SFPC BB H 1 08:31:43.10 1587.745 00:00:26 Yes
6 Alegre Loft - CA 1203-AU22-FMT BB H 1 08:31:44.60 1587.102 00:00:28 Yes
7 Hi-Cal Connection - CA 0811-AU22-HICA BC H 1 08:31:49.30 1585.090 00:00:32 Yes
8 Jose & Molo - CA 2011-AU22-JBL DCPT H 1 08:31:50.00 1584.791 00:00:33 Yes
9 Osty Loft - CA 0017-AU22-OSTY ♎️LIBRA♎️ BB H 1 08:31:50.30 1584.663 00:00:33 Yes
10 Barreras-Team - CA 2018-AU22-JBL EL “CAPITÁN” GRIZ C 1 08:31:50.70 1584.492 00:00:34 Yes
10 Peach Classic - GA 15603-AU22-FOYS PEACH BRANDY BB C 1 08:31:50.70 1584.492 00:00:34 Yes
12 Peach Classic - GA 15613-AU22-FOYS PEACH PIE BB C 2 08:31:51.30 1584.236 00:00:34 Yes
13 Arturo Serratos Loft - CA 22312-AU22-OAK BBWF H 1 08:31:53.40 1583.340 00:00:37 Yes
14 Sun Loft - MA 70349-AU22-ARPU BBWF C 1 08:31:54.00 1583.085 00:00:37 Yes
15 Jesus Avalos - CA 44614-AU22-JEDD BBWF H 1 08:31:54.50 1582.872 00:00:38 Yes
16 R M C Loft - CA 1078-PH22-RMC BC H 1 08:31:54.90 1582.701 00:00:38 Yes
16 Juan Guerrero - CA 13170-AU22-BELG BC H 1 08:31:54.90 1582.701 00:00:38 Yes
18 Bay Diamond Team - CA 0038-AU22-HJ BB H 1 08:31:56.70 1581.935 00:00:40 Yes
19 LANGDA LOFT - CA 7748-AU22-JEDD BB H 1 08:31:57.80 1581.467 00:00:41 Yes
20 Rodriguez Loft - TX 22650-AU22-WIN 18479 (#1)-003 (VH) BBWF H 1 08:31:59.10 1580.914 00:00:42 Yes
21 H Padilla Y Leo Gomez - CA 0701-AU22-SFPC RC H 2 08:31:59.70 1580.659 00:00:43 Yes
22 Western Loft - CA 5496-AU22-VITA SOLOMON7 BB C 1 08:32:00.20 1580.446 00:00:43 Yes
22 Silicon Valley Syndicate - CA 22009-AU22-SVS BB C 1 08:32:00.20 1580.446 00:00:43 Yes
24 Tenbrink and Sanders - CA 0304-AU22-SAND BB C 1 08:32:00.90 1580.149 00:00:44 Yes
25 Tenbrink and Sanders - CA 0126-AU22-GENE BC H 2 08:32:01.20 1580.022 00:00:44 Yes
26 Red Dragon Lofts - CA 0740-AU22-HAY DCWF H 1 08:32:01.60 1579.852 00:00:45 Yes
27 Roger fernandez Family - CA 21704-AU22-MAN BC H 1 08:32:01.90 1579.725 00:00:45 Yes
27 Kris Kaye Family Loft - CA 7207-AU22-FOYS 2139205x80139 BB H 1 08:32:01.90 1579.725 00:00:45 Yes
29 Rueter Family Loft - OR 1078-AU22-CORP BB H 1 08:32:02.50 1579.470 00:00:46 Yes
30 Thunder Birds Breeding Loft - TX 56444-AU22-ARPU Beast Mode BC H 1 08:32:02.80 1579.343 00:00:46 Yes
31 The Chosen Few - MI 0270-AU22-CHOS 9047 x 1141 BB H 1 08:32:03.40 1579.088 00:00:46 Yes
31 Boker 69 Loft - CA 2566-AU22-TULE BCWF C 1 08:32:03.40 1579.088 00:00:46 Yes
33 Jack The Reaper Loft - CA 1257-AU22-FMT Gabo BB C 1 08:32:05.10 1578.368 00:00:48 Yes
34 Slapsoil Loft Syndicate Gm - CA 2602-AU22-SFR LAS VEGAS # KANNIBAL BC H 1 08:32:05.50 1578.199 00:00:49 Yes
35 Charleshunter Loft - CA 0001-AU22-CHAR RC C 1 08:32:07.60 1577.309 00:00:51 Yes
36 Baldwin & Tillson - NC 2275-AU22-TENT B/T 1207 PEN C 1 08:32:07.80 1577.225 00:00:51 Yes
37 R Y M LOFT HUGO AMESCUA - CA 1706-AU22-WSJ BC C 1 08:32:08.20 1577.056 00:00:51 Yes
38 APRIL LOFT - CA 20719-AU22-MAN BB H 1 08:32:08.70 1576.843 00:00:52 Yes
39 Peach Classic - GA 0162-AU22-WINE THE GEORGIA PEACH BC C 3 08:32:09.20 1576.632 00:00:52 Yes
40 Vangruen Syndicate - CA 0776-AU22-MOJA BCWF H 1 08:32:09.90 1576.337 00:00:53 Yes
41 Nevarez Loft - CA 1151-AU22-ARPU BB C 1 08:32:10.30 1576.168 00:00:53 Yes
42 Rafael Reyes - CA 32432-AU22-JEDD BB H 1 08:32:10.80 1575.957 00:00:54 Yes
43 Texas-Syndicate-Loft - TX 4516-AU22-VITA BB H 1 08:32:11.10 1575.829 00:00:54 Yes
44 Tenbrink and Sanders - CA 0109-AU22-GENE BB C 3 08:32:12.10 1575.407 00:00:55 Yes
45 Carranza Lofts - CA 1323-AU22-FORT El Piñatas(Chino & Carda BB H 1 08:32:13.00 1575.027 00:00:56 Yes
46 Red Dragon Lofts - CA 0857-AU22-FMT BB H 2 08:32:13.40 1574.858 00:00:57 Yes
47 Dayrit Lofts - CA 30789-AU22-AA Mr.houben/Bluetab BB C 1 08:32:14.50 1574.395 00:00:58 Yes
48 Carranza Lofts - CA 1332-AU22-FORT (Chino & Cardash) BB H 2 08:32:14.90 1574.226 00:00:58 Yes
49 Osty Loft - CA 0015-AU22-OSTY ♉️TAURUS♉️ BB H 2 08:32:15.30 1574.057 00:00:58 Yes
50 Silicon Valley Syndicate - CA 22013-AU22-SVS DC H 2 08:32:16.10 1573.721 00:00:59 Yes
51 Genesis Syndicate Loft - AZ 0624-AU22-GENE BC H 1 08:32:16.40 1573.595 00:00:59 Yes
52 Los Tocayos loft - CA 0143-AU22-SALD BBWF H 1 08:32:16.90 1573.383 00:01:00 Yes
53 Palomar Raul Castaneda - JA 0259-IF22-CAST BB H 1 08:32:17.30 1573.215 00:01:00 Yes
54 Genesis Syndicate Loft - AZ 0609-AU22-GENE BB C 2 08:32:17.50 1573.131 00:01:01 Yes
55 Tepa sindicato - CA 3411-AU22-SFR DC H 1 08:32:17.80 1573.005 00:01:01 Yes
56 G D L - L O F T - G T - CA 28999-AU22-DV ZORRO/V D BULCK🕊 BC H 1 08:32:17.90 1572.963 00:01:01 Yes
57 GM9LOFT - CA 6349-AU22-VITA EASY LANG BCWF H 1 08:32:18.40 1572.752 00:01:01 Yes
57 Salazar Pigeon Loft - IL 11713-AU22-CHIC DC H 1 08:32:18.40 1572.752 00:01:01 Yes
59 K/N Loft - HI 0053-AU22-FIA BB H 1 08:32:18.70 1572.626 00:01:02 Yes
60 adobo Nation - CA 0358-AU22-ARAM BB H 1 08:32:19.00 1572.500 00:01:02 Yes
61 Palomar Raul Castaneda - JA 0250-IF22-CAST BBPT H 2 08:32:19.40 1572.332 00:01:02 Yes
62 Slapsoil Loft Syndicate Gm - CA 2603-AU22-SFR HARRY 279 BC H 2 08:32:19.70 1572.206 00:01:03 Yes
62 Bad Boy Jm Family Loft - FL 2004-SU22-MISS BLAK C 1 08:32:19.70 1572.206 00:01:03 Yes
64 R M C Loft - CA 1034-PH22-RMC BC H 2 08:32:20.00 1572.079 00:01:03 Yes
65 Alaniz Loft - IL 0201-AU22-ALAN BB H 1 08:32:20.50 1571.869 00:01:04 Yes
66 Gomez Loft - CA 6568-AU22-CHP DC H 1 08:32:20.80 1571.743 00:01:04 Yes
66 Gapo Loft - CA 7223-AU22-ARPU BC H 1 08:32:20.80 1571.743 00:01:04 Yes
68 Texas-Syndicate-Loft - TX 0112-MX22-RUIZ BB C 2 08:32:20.90 1571.701 00:01:04 Yes
69 Gomez & Martin Loft - CA 0702-AU22-SFPC BC H 1 08:32:21.20 1571.576 00:01:04 Yes
70 Hurtado Family Loft - CA 22011-MX22-FMC 2526% hapico💯 BC C 1 08:32:21.30 1571.534 00:01:04 Yes
70 Ash Her About Pigeon Tv - CA 16044-AU22-JEDD PANING-GER-Z DC H 1 08:32:21.30 1571.534 00:01:04 Yes
72 R M C Loft - CA 1069-PH22-RMC BB H 3 08:32:21.80 1571.323 00:01:05 Yes
72 Skyruiz Loft - CA 0031-AU22-CVC "Fast is better" BB H 1 08:32:21.80 1571.323 00:01:05 Yes
74 Sierra Ranch - CA 0152-AU22-SIER Lucio BB H 1 08:32:21.90 1571.281 00:01:05 Yes
75 Hi-Cal Connection - CA 0822-AU22-HICA BB H 2 08:32:22.10 1571.197 00:01:05 Yes
76 Alegre Loft - CA 1202-AU22-FMT BB H 2 08:32:22.40 1571.072 00:01:05 Yes
77 Kris Kaye Family Loft - CA 7209-AU22-FOYS 496x41844 BC H 2 08:32:23.00 1570.819 00:01:06 Yes
78 3 Amigos Lofts - CA 0711-AU22-HAY BB C 1 08:32:23.30 1570.693 00:01:06 Yes
79 Chavo Vergara Y Mina Nueva - TN 0221-IF22-SCHO BB H 1 08:32:23.70 1570.526 00:01:07 Yes
80 Palomar Raul Castaneda - JA 0262-IF22-CAST BB H 3 08:32:24.00 1570.400 00:01:07 Yes
81 G D L - L O F T - G T - CA 28965-AU22-DV GDL🐦SPECIAL🐦GDL BBWF H 2 08:32:24.30 1570.274 00:01:07 Yes
82 Lsu Loft - LA 0878-AU22-LSU BB H 1 08:32:24.90 1570.023 00:01:08 Yes
83 Barreras-Team - CA 2004-AU22-JBL Articuno BB H 2 08:32:25.50 1569.771 00:01:09 Yes
84 Palomar Raul Castaneda - JA 0252-IF22-CAST BB H 4 08:32:26.30 1569.436 00:01:09 Yes
85 Paco Loft - CA 0218-AU22-PACO DELTA DONE BB H 1 08:32:26.60 1569.310 00:01:10 Yes
86 R M C Loft - CA 1041-PH22-RMC BC C 4 08:32:26.90 1569.184 00:01:10 Yes
87 H. Padilla/Capilla - MI 0934-AU22-MTZ BB H 1 08:32:27.30 1569.017 00:01:10 Yes
87 Baro Union Roger Fernndez Sal Perez - CA 21714-AU22-MAN BC H 1 08:32:27.30 1569.017 00:01:10 Yes
89 850MERICA SYNDICATE - FL 8988-AU22-VITA BB H 1 08:32:27.60 1568.891 00:01:11 Yes
90 Bieche Lofts - CA 2012-AU22-BIEC SILV H 1 08:32:27.90 1568.766 00:01:11 Yes
91 Baldwin & Tillson - NC 2276-AU22-TENT B/T 3667 BB C 2 08:32:28.50 1568.515 00:01:12 Yes
92 Beto's Loft - CA 2150-AU22-SFR BB C 1 08:32:29.00 1568.306 00:01:12 Yes
93 3 Amigos Lofts - CA 0703-AU22-HAY BC H 2 08:32:29.40 1568.138 00:01:12 Yes
94 FRANCOS CLASSIC - CA 2410-AU22-SFR BB H 1 08:32:29.70 1568.013 00:01:13 Yes
95 Nevarez Loft - CA 1110-AU22-ARPU BB H 2 08:32:30.10 1567.846 00:01:13 Yes
96 Aimrude Syndicate - CA 0066-AU22-JAN BCPT H 1 08:32:30.80 1567.553 00:01:14 Yes
97 ALDERWOOD LOFT - AK 5430-AU22-FOYS Darkladie30 BB H 1 08:32:31.80 1567.135 00:01:15 Yes
98 Peach Classic - GA 15625-AU22-FOYS THE PEACH BB C 4 08:32:31.90 1567.093 00:01:15 Yes
99 Juan Romo - CA 0010-AU22-ROMO BB C 1 08:32:32.20 1566.968 00:01:15 Yes
100 Bieche Lofts - CA 2030-AU22-BIEC BC C 2 08:32:36.20 1565.299 00:01:19 Yes

There are 668 bird records

Note: These Race Results are unofficial and subject to change until verified by the Race Committee and declared final.

 

 


windy
Click for Forecast for 94533 from weatherUSA